Content
SEND FEEDBACK

Daily
Averages
Monthly
Summary
Turkmenistan

ASHGABAT, TURKMENISTAN


Home > Asia > Turkmenistan
Elevation: 775 feet     Latitude: 37 58N     Longitude: 058 20E

WEATHER
 
SELECT A DAY
Number of Records: 181,509;   Date Range: 3/15/97 - 10/30/14
 
SHARE

PRINT THIS DATA

[ ← Previous Day ]
WEATHER ALMANAC - MAY 8, 2013
[ Next Day → ]
[ °C ]   °F
Weather ElementAverageHighLow
Temperature78.8 °F91.4 °F (4:00 pm)64.4 °F (4:00 am)
Dewpoint33.5 °F52 °F (11:00 pm)21.2 °F (2:00 pm)
Humidity20.7 %40 % (4:00 am)8 % (2:00 pm)
Barometer29.96 in30.04 in (10:00 pm)29.91 in (2:00 am)
Wind Speed8.3 mph15.7 mph (2:00 pm)
Wind Gust22.4 mph (12:00 pm)
Weather ElementAverage
Visibility6.2 mi
Wind DirectionWSW (256.3 °)

Weather ElementTotal
Precipitation---
Cooling Degree Days12.9 (Base 65)
Growing Degree Days27.9 (Base 50)
Averaged from 33 records on May 8, 2013
WEATHER CONDITIONS BREAKOUT
WIND DIRECTION BREAKOUT
WEATHER BY HOUR - MAY 8, 2013
[ °C ]   °F
Local TimeTemperatureDewpointHumidityBarometerVisibilityWind DirectionWind SpeedGust SpeedPrecipitationEventsConditions
1:00 AM71.6 °F33.8 °F25 %29.92 in6.2 miSSW (200°)4.5 mphClear
2:00 AM67.0 °F45.0 °F34 %29.91 in6.0 miCalm
2:00 AM69.8 °F33.8 °F27 %29.92 in6.2 miVariable2.2 mphClear
3:00 AM68.0 °F37.4 °F33 %29.92 in6.2 miWest (260°)4.5 mphClear
4:00 AM64.4 °F39.2 °F40 %29.92 in6.2 miSouth (180°)6.7 mphClear
5:00 AM65.0 °F46.0 °F38 %29.92 in6.0 miSSW (200°)6.7 mph
5:00 AM64.4 °F37.4 °F37 %29.92 in6.2 miSSW (200°)6.7 mphClear
6:00 AM64.4 °F37.4 °F37 %29.95 in6.2 miWNW (290°)6.7 mphClear
7:00 AM64.4 °F39.2 °F40 %29.95 in6.2 miSSW (200°)6.7 mphClear
8:00 AM70.0 °F47.0 °F32 %29.96 in6.0 miESE (110°)6.7 mph
8:00 AM71.6 °F37.4 °F29 %29.95 in6.2 miESE (110°)6.7 mphClear
9:00 AM78.8 °F33.8 °F20 %29.98 in6.2 miVariable2.2 mphClear
10:00 AM82.4 °F30.2 °F15 %30.01 in6.2 miNNW (340°)6.7 mphClear
11:00 AM85.0 °F39.0 °F11 %29.99 in6.0 miNW (320°)11.2 mph
11:00 AM84.2 °F23.0 °F11 %29.98 in6.2 miNW (320°)11.2 mphClear
12:00 PM87.8 °F23.0 °F9 %29.98 in6.2 miNW (320°)11.2 mph22.4 mphClear
1:00 PM89.6 °F23.0 °F9 %29.98 in6.2 miNNW (330°)13.4 mphScattered Clouds
2:00 PM88.0 °F41.0 °F11 %29.96 in6.0 miNW (320°)15.7 mphScattered Clouds
2:00 PM89.6 °F21.2 °F8 %29.98 in6.2 miNW (320°)11.2 mphScattered Clouds
3:00 PM89.6 °F21.2 °F8 %29.95 in6.2 miNW (320°)8.9 mphMostly Cloudy
3:30 PM89.6 °F21.2 °F8 %29.95 in6.2 miNNW (340°)6.7 mphMostly Cloudy
4:00 PM91.4 °F21.2 °F8 %29.95 in6.2 miNW (310°)11.2 mphMostly Cloudy
5:00 PM90.0 °F40.0 °F10 %29.95 in6.0 miWNW (300°)6.7 mphScattered Clouds
5:00 PM91.4 °F23.0 °F8 %29.95 in6.2 miWNW (300°)8.9 mph20.1 mphMostly Cloudy
6:00 PM89.6 °F23.0 °F9 %29.95 in6.2 miNW (310°)13.4 mphScattered Clouds
7:00 PM86.0 °F26.6 °F12 %29.95 in6.2 miNNW (330°)13.4 mphScattered Clouds
7:30 PM84.2 °F26.6 °F12 %29.98 in6.2 miNW (310°)8.9 mphScattered Clouds
8:00 PM82.0 °F44.0 °F16 %29.96 in6.0 miWNW (300°)8.9 mphClear
8:00 PM80.6 °F26.6 °F14 %29.98 in6.2 miWNW (300°)8.9 mphPartly Cloudy
9:00 PM75.2 °F33.8 °F22 %30.01 in6.2 miWest (280°)8.9 mphPartly Cloudy
10:00 PM77.0 °F37.4 °F24 %30.04 in6.2 miWest (260°)8.9 mphClear
11:00 PM73.0 °F52.0 °F36 %30.03 in6.0 miWest (260°)8.9 mph
11:00 PM75.2 °F41.0 °F29 %30.04 in6.2 miWest (260°)8.9 mphClear
Hourly data recorded from UTAA, located miles away from Ashgabat, Turkmenistan







STORIES FROM OUR PARTNERS